Location: Hurecourt
(47.9030°N, 6.0653°E)
Time: 21:02:57
(UTC+00:00)

ATLAS 5 CENTAUR R/B - Pass Details

Date: 14 July 2020
Orbit: 273 x 14305 km, 60.7° (Epoch: 14 August)

Event Time Altitude Azimuth Distance (km) Brightness Sun altitude
Rises 02:42:50 0° 300° (WNW) 2,688 5.2 -9.5°
Reaches altitude 10° 02:44:25 10° 288° (WNW) 2,149 4.6 -9.3°
Maximum altitude 02:48:35 32° 224° (SW) 1,977 4.1 -8.8°
Drops below altitude 10° 03:00:31 10° 169° (S) 6,354 6.9 -7.4°
Sets 03:09:52 0° 164° (SSE) 9,628 7.8 -6.3°
